Theta_e
309 311 312 313 314 315 315 306 304 304 304 303 302 302 301 303 302 303 304 304 304 301 301 302 302 302 302 304 303 303 306 307 307 306 307 304 305 304 303 304 303 304 304 302 301
308 310 311 312 313 315 315 306 304 302 303 302 302 302 302 303 304 306 303 302 301 301 302 303 304 304 305 304 304 306 306 307 305 305 306 304 304 305 304 305 304 304 301 299 300
309 309 310 311 312 314 315 311 306 303 301 302 302 302 302 303 306 305 301 302 301 301 301 302 302 305 305 304 304 304 306 304 304 304 303 304 303 303 304 306 306 306 306 301 300
311 312 312 312 312 313 313 313 308 304 301 301 302 302 302 303 312 302 300 301 301 301 301 302 304 306 307 306 304 304 304 303 304 303 303 303 303 304 304 307 303 305 303 302 302
314 314 314 314 314 315 314 313 310 305 302 302 302 302 303 304 304 300 300 301 301 301 302 303 304 305 306 305 304 305 305 303 303 302 302 302 303 303 303 305 303 301 300 302 302
314 314 313 313 313 313 313 313 310 305 302 302 301 302 304 308 300 300 300 301 301 301 301 302 303 303 304 304 305 303 303 304 304 304 303 302 303 301 304 303 303 302 301 302 302
314 314 313 312 312 312 311 313 308 304 302 302 302 303 303 303 300 300 300 300 301 301 302 301 301 303 302 303 302 303 303 304 304 303 303 302 303 303 304 302 303 302 302 301 301
313 313 312 312 311 311 311 313 305 302 302 303 303 302 303 299 299 300 300 300 300 301 301 300 301 302 303 302 302 303 303 308 304 302 301 301 308 305 302 302 303 303 303 302 301
312 312 311 310 309 310 312 310 304 302 302 302 302 302 304 299 299 299 300 301 300 301 301 300 301 302 302 304 306 303 312 306 306 303 303 303 307 307 302 302 304 304 303 302 301
311 310 309 309 309 311 312 304 303 303 302 302 301 305 301 301 299 299 299 300 301 301 302 302 302 304 304 305 318 313 307 306 305 304 303 305 305 305 305 305 304 304 304 303 301
306 304 305 306 308 310 307 303 307 308 303 306 304 302 300 298 298 299 298 300 300 301 304 303 305 308 307 305 303 303 304 305 305 303 302 304 305 304 305 305 304 303 302 301 300
301 302 303 303 306 311 304 306 305 305 313 302 299 299 298 298 300 299 298 300 301 303 302 304 306 303 302 302 303 303 304 306 305 301 302 304 304 304 304 303 301 300 299 298 296
302 303 303 303 308 308 303 303 303 304 312 306 298 299 298 298 299 300 299 300 301 302 303 304 304 301 302 303 304 304 305 305 304 303 301 301 307 306 302 300 299 298 297 296 296
302 304 303 305 308 303 303 303 303 303 313 308 299 299 298 298 299 297 297 300 302 303 302 303 301 302 303 303 303 307 301 302 302 304 308 302 314 311 307 302 300 300 299 297 294
300 304 304 306 305 305 302 303 303 303 314 302 298 296 297 298 299 299 297 299 302 302 302 306 302 303 304 303 301 305 300 301 301 304 303 304 308 310 302 302 301 299 298 296 293
299 303 305 306 304 302 302 302 303 315 311 302 298 300 301 299 299 299 300 298 299 300 300 301 299 300 301 299 299 299 301 302 300 303 310 303 305 311 306 305 301 299 296 293 292
298 302 305 305 306 302 302 304 315 312 305 305 300 302 303 302 302 302 303 305 307 312 310 306 303 300 300 301 301 302 305 315 315 312 315 300 303 308 304 299 299 298 297 294 291
299 303 304 304 303 303 303 310 308 302 305 304 303 304 308 303 304 304 306 308 304 305 308 309 312 302 300 302 306 304 306 313 316 314 307 298 306 307 300 296 294 292 291 292 292
301 304 303 303 303 303 308 313 310 302 305 308 306 308 307 304 305 305 306 306 304 304 310 309 308 298 299 299 301 303 306 301 306 297 304 309 305 301 299 299 296 297 294 295 292
301 303 302 301 303 303 308 310 303 301 305 305 308 305 309 307 306 305 305 303 302 301 301 303 308 301 298 298 298 302 299 305 304 310 311 310 306 310 304 304 300 299 296 294 292
302 303 300 301 303 306 310 306 300 303 304 306 304 305 306 306 305 305 304 303 301 301 300 301 303 303 300 301 303 300 303 301 301 301 311 311 310 308 304 299 297 296 294 293 290
303 303 298 301 306 304 303 299 300 301 301 302 304 305 305 303 304 304 304 303 300 300 302 300 302 304 303 296 297 300 303 303 307 305 300 299 307 295 293 290 289 293 293 292 289
303 302 298 301 306 303 301 302 302 301 301 303 304 303 300 302 305 302 302 300 300 299 302 301 303 306 303 299 297 300 299 299 296 297 302 306 309 291 289 297 299 294 295 292 288
302 302 300 301 300 301 301 301 301 301 302 302 303 300 300 301 299 302 302 300 298 298 300 300 301 303 309 306 303 302 300 297 300 302 301 301 303 302 299 300 299 296 292 289 288
301 299 294 301 302 302 301 300 302 300 300 302 303 303 302 301 299 301 301 300 299 299 300 299 300 295 297 298 299 301 301 299 298 300 302 300 294 299 299 299 293 288 289 290 290
301 299 293 295 296 302 302 301 301 299 300 300 301 302 301 300 301 298 301 301 300 297 299 298 300 295 296 295 296 299 299 300 299 300 295 296 297 295 292 290 294 294 291 289 289
298 295 297 296 297 301 302 301 301 300 300 300 301 300 301 301 299 298 297 297 299 298 299 298 299 298 301 293 296 301 297 297 295 290 296 299 299 292 294 295 295 292 289 289 289
Wind_Speed
4 5 7 7 8 9 10 10 10 8 7 7 5 5 4 4 2 1 2 2 4 5 2 3 3 3 3 3 2 1 5 8 7 5 1 3 5 3 1 4 4 5 3 3 11
3 5 6 7 8 9 11 11 11 10 8 8 6 5 4 4 2 5 2 3 3 4 2 3 3 3 3 3 3 5 4 5 3 2 3 2 5 3 4 7 8 8 6 5 16
3 4 5 6 7 9 11 11 12 12 10 7 6 2 2 3 2 2 2 2 3 3 3 3 4 2 3 3 4 3 5 1 2 6 4 4 4 4 5 12 12 13 12 12 16
4 5 6 7 8 9 10 11 12 12 9 7 4 1 1 1 3 1 2 3 2 2 2 2 2 4 4 5 3 5 5 5 3 1 2 4 3 4 11 10 3 8 5 14 15
3 5 7 9 9 9 10 11 11 11 8 6 1 0 2 2 2 1 2 3 2 1 2 1 2 3 3 2 3 7 4 3 5 6 7 6 11 10 15 16 11 3 7 11 13
4 6 7 9 11 10 10 10 11 8 6 3 1 1 1 2 5 2 2 2 3 2 2 2 1 1 1 2 4 1 7 10 9 10 8 7 7 4 13 5 14 14 13 11 12
7 7 7 9 11 13 12 10 10 5 3 1 1 1 1 3 4 3 2 3 5 2 2 2 1 2 2 1 2 3 8 9 10 4 5 2 8 16 17 7 6 7 9 11 11
7 10 9 10 13 12 12 10 7 3 0 0 0 1 2 2 3 2 2 3 4 5 4 3 1 2 1 1 2 4 3 5 3 3 1 4 11 4 4 7 11 12 11 9 10
5 10 11 11 11 11 9 7 4 1 1 1 1 2 2 3 2 3 4 2 2 3 3 2 2 1 2 3 5 4 8 6 5 1 1 7 8 2 1 4 8 8 9 8 8
8 8 9 9 10 10 8 4 1 1 1 2 2 2 2 3 2 2 4 3 2 2 1 1 1 2 2 5 5 5 7 6 7 1 4 10 19 20 22 17 19 16 14 12 10
5 9 11 11 9 9 5 1 3 2 1 1 3 2 3 3 2 4 3 3 2 1 3 1 4 6 4 6 5 6 9 14 14 7 6 17 19 19 22 17 18 16 13 11 8
9 11 12 11 9 6 3 3 1 2 2 1 1 2 2 3 2 2 2 3 2 2 2 3 6 2 2 3 6 8 10 13 10 2 4 12 21 24 22 15 9 5 2 3 4
10 13 16 10 5 4 4 5 5 2 1 1 1 2 2 2 2 2 1 2 2 3 4 4 2 3 3 4 5 7 8 9 8 8 5 10 11 5 1 0 2 2 3 5 3
11 13 13 4 4 7 3 7 5 3 1 4 2 1 1 2 3 1 2 1 2 2 3 4 1 1 2 3 3 4 3 5 6 4 5 4 8 9 4 2 2 2 3 4 5
11 13 9 4 2 4 5 7 5 1 3 4 3 2 1 1 4 3 2 0 3 4 3 1 1 1 1 2 1 2 2 3 2 4 5 4 5 4 0 6 7 6 6 4 3
9 10 5 4 3 5 8 7 3 1 6 4 3 4 4 2 2 1 1 2 1 2 1 3 1 1 1 1 1 1 4 5 1 2 4 1 4 3 3 2 5 4 4 4 3
10 7 5 4 2 9 8 3 2 4 2 5 3 4 3 2 3 1 1 2 2 3 1 2 1 2 2 3 1 1 4 3 3 3 2 1 4 6 2 1 1 3 5 4 4
7 7 4 5 5 8 5 2 5 1 3 2 3 5 3 3 2 1 3 4 2 2 2 1 3 2 2 1 1 0 2 3 5 3 3 3 5 2 1 2 3 5 7 6 5
4 4 3 6 8 8 1 2 4 4 5 8 4 4 3 2 2 3 2 1 2 2 2 3 3 2 2 1 1 3 3 2 3 1 3 3 4 1 2 2 1 3 6 10 8
3 3 3 7 9 3 2 3 2 1 4 2 4 1 5 5 4 2 1 2 3 3 4 3 3 1 2 1 2 2 3 2 2 3 3 3 4 3 3 1 2 6 12 10 9
4 2 5 8 5 2 3 4 3 0 0 3 4 4 2 4 3 3 2 3 2 4 2 4 1 2 1 5 4 3 3 3 2 1 3 4 1 2 3 1 6 12 11 10 8
2 2 6 11 3 1 3 5 4 3 1 1 1 4 5 4 3 5 5 2 4 3 3 2 2 4 1 1 2 2 3 5 4 4 1 2 5 2 1 3 7 12 10 9 7
1 2 2 3 5 4 2 1 3 6 5 5 3 2 1 5 4 4 5 3 4 3 4 5 3 3 3 2 1 4 4 2 3 1 6 3 3 2 2 8 5 9 10 8 7
1 3 0 2 1 6 6 5 6 2 3 3 4 4 3 3 3 6 5 3 4 3 5 3 3 5 5 1 3 4 5 7 6 3 3 7 9 8 13 19 16 16 14 12 9
2 2 0 4 4 5 4 7 7 6 3 4 3 5 6 6 4 4 4 5 5 3 2 3 4 2 8 12 9 11 11 11 12 9 8 1 6 13 17 13 11 12 12 12 9
2 3 2 1 1 9 9 7 9 4 8 5 4 8 7 5 3 6 7 4 4 4 5 3 2 0 4 4 5 5 10 13 15 12 9 10 17 2 6 8 8 11 10 12 11
3 2 1 2 2 6 10 8 9 9 7 4 10 6 7 10 3 3 4 3 4 7 9 6 2 0 3 2 6 4 3 4 2 2 4 6 2 8 12 12 11 9 9 10 10
Wind_Direction
27 27 20 22 16 15 10 6 357 354 345 339 336 332 334 342 350 97 74 8 343 347 20 120 106 110 101 105 103 233 237 248 251 209 269 155 214 165 328 244 212 202 253 92 151
21 19 14 12 5 4 3 6 357 346 339 331 334 329 344 350 90 71 77 357 1 17 95 148 133 144 127 135 153 220 236 244 260 233 255 221 232 204 218 211 228 220 203 154 163
3 9 3 360 356 359 356 358 357 350 335 326 327 334 344 351 195 89 15 2 7 22 76 117 131 158 175 168 181 190 249 282 260 262 271 262 246 219 229 240 226 221 205 181 181
348 358 356 351 354 351 349 354 352 348 341 330 327 357 353 70 297 115 358 340 348 36 110 132 159 165 192 200 174 243 252 253 294 319 241 247 294 248 231 248 52 217 168 179 195
348 352 350 347 346 343 341 342 347 343 342 334 344 34 103 161 118 47 9 351 4 82 66 146 187 171 222 203 196 235 264 246 259 262 250 262 252 267 259 258 252 219 192 199 208
330 335 332 333 330 335 330 333 338 338 344 360 58 116 136 214 128 82 26 25 35 58 56 19 145 181 176 232 231 287 277 273 270 257 239 242 261 224 251 297 247 233 230 225 223
291 294 298 314 319 325 322 323 331 330 338 350 101 104 193 101 128 75 75 79 57 70 108 69 93 220 144 218 336 305 298 290 248 252 238 226 249 237 256 240 251 234 240 234 228
273 290 290 298 309 312 313 317 326 319 342 102 108 137 111 129 143 93 96 91 77 78 95 101 79 104 281 113 233 269 252 278 97 173 95 229 268 254 337 241 250 247 244 231 227
283 282 290 303 312 315 314 317 313 285 183 153 172 253 145 139 139 94 86 108 79 69 67 83 72 62 157 242 267 217 276 252 296 201 225 224 286 304 225 219 261 243 235 234 238
279 275 290 306 320 326 322 302 249 209 168 124 116 186 176 154 121 89 74 88 95 109 143 132 108 215 178 204 265 288 274 258 270 38 242 264 265 278 281 271 266 267 263 250 249
290 301 292 294 306 320 322 163 192 181 164 270 104 88 133 127 117 58 55 110 118 164 242 50 242 236 283 251 299 293 276 276 277 275 288 273 282 282 279 273 268 274 262 260 263
328 323 313 297 272 300 278 231 124 98 214 61 121 110 123 173 141 62 32 161 178 161 176 210 244 51 292 242 243 249 272 278 283 202 255 289 287 279 277 283 277 296 151 123 121
341 332 322 292 260 233 186 166 151 120 242 113 113 147 155 185 138 105 331 136 144 169 208 241 86 316 257 258 252 255 252 281 286 314 256 300 271 277 153 223 151 149 98 90 98
339 341 329 272 223 172 159 162 149 156 251 163 189 116 138 150 99 15 16 313 145 217 202 255 51 271 259 265 235 273 0 290 285 310 292 345 295 279 302 323 145 127 131 93 94
328 335 323 222 215 176 157 154 151 191 278 118 146 131 115 68 120 62 5 115 197 169 202 80 196 64 296 335 244 305 315 279 266 271 311 194 245 267 16 96 90 77 73 67 70
306 321 293 225 206 162 148 146 154 102 243 145 135 162 135 83 69 90 114 63 34 158 220 277 35 352 12 27 307 297 278 237 139 241 249 11 263 301 33 79 106 79 71 45 27
277 302 277 210 230 166 151 160 134 210 38 174 158 166 118 120 103 25 155 149 237 215 58 333 102 93 349 232 140 294 284 288 245 200 285 148 242 295 333 202 267 341 338 326 315
273 291 244 207 160 161 155 116 217 13 196 127 124 116 166 142 112 146 197 186 140 56 105 277 207 176 28 28 12 90 300 284 286 289 325 159 239 168 135 236 264 274 273 297 325
289 229 220 187 167 168 171 182 226 187 145 159 118 155 153 173 173 205 199 118 93 176 228 198 239 127 65 75 296 132 205 27 281 92 269 256 257 260 48 70 45 297 326 342 343
295 187 200 175 162 136 106 260 245 227 126 107 190 233 164 176 175 114 18 93 148 210 249 174 284 94 110 158 77 277 135 201 197 270 265 254 262 195 176 149 314 330 333 337 340
267 193 178 171 146 76 209 223 220 160 7 147 158 140 160 183 148 135 191 138 197 153 209 157 246 134 163 200 172 162 210 212 303 234 280 309 17 213 131 55 332 319 333 333 324
223 231 172 164 164 159 176 182 163 173 37 105 113 140 168 157 155 198 200 245 145 164 178 155 163 257 242 12 298 260 244 203 239 172 194 331 275 58 96 273 291 314 319 319 313
216 152 163 200 194 171 134 124 161 162 196 174 157 93 61 167 202 195 182 118 127 168 179 175 203 288 186 186 188 229 194 201 91 98 212 218 248 147 205 312 328 289 309 311 320
194 179 231 239 58 147 162 190 181 196 179 146 112 106 125 183 252 173 180 152 148 196 192 201 220 239 256 23 102 209 201 207 207 207 182 238 293 294 340 334 328 330 325 311 301
210 204 16 200 203 209 192 168 160 167 207 183 166 200 157 203 202 173 146 141 174 202 214 199 248 216 265 267 258 255 252 205 211 219 233 278 263 310 307 314 310 308 312 320 319
185 168 152 153 224 207 209 203 186 145 165 206 208 194 169 203 246 186 157 186 194 170 188 194 260 177 275 309 220 250 247 243 224 232 252 292 294 340 302 287 305 324 331 336 335
222 129 209 130 161 178 215 189 191 149 197 234 196 155 204 220 167 73 94 61 165 173 194 181 236 312 266 312 293 254 239 189 189 259 213 231 274 323 319 321 318 313 325 324 325